• In Netherlands
  • List of Countries
  • For 7 days
  • Water Temperature
  • Satellite Maps
  • Weather Map
  • Weather Widgets
  • user-avatar
    Login

    Hourly Weather Encamp

    Today, 21 July, Friday

    Time Temperature Precipitation Wind Pressure Humidity
    00:00 +11°C° 0 mm 0 mps 625 mmHg 94%
    01:00 +12°C° 0 mm 1 mps 624 mmHg 94%
    02:00 +12°C° 0 mm 1 mps 624 mmHg 95%
    03:00 +12°C° 0 mm 1 mps 624 mmHg 95%
    04:00 +12°C° 0.2 mm 1 mps 624 mmHg 93%
    05:00 +12°C° 0.2 mm 1 mps 624 mmHg 92%
    06:00 +13°C° 0.2 mm 1 mps 624 mmHg 91%
    07:00 +14°C° 0.3 mm 1 mps 625 mmHg 84%
    08:00 +15°C° 0.3 mm 2 mps 625 mmHg 77%
    09:00 +16°C° 0.3 mm 2 mps 625 mmHg 71%
    10:00 +18°C° 0.3 mm 2 mps 626 mmHg 65%
    11:00 +19°C° 0.3 mm 2 mps 626 mmHg 60%
    12:00 +20°C° 0.3 mm 3 mps 626 mmHg 54%
    13:00 +20°C° 0.8 mm 3 mps 626 mmHg 55%
    14:00 +20°C° 0.8 mm 3 mps 626 mmHg 55%
    15:00 +20°C° 0.8 mm 3 mps 626 mmHg 56%
    16:00 +19°C° 0.2 mm 2 mps 626 mmHg 59%
    17:00 +19°C° 0.2 mm 2 mps 625 mmHg 62%
    18:00 +18°C° 0.2 mm 2 mps 625 mmHg 66%
    19:00 +16°C° 0 mm 1 mps 625 mmHg 73%
    20:00 +14°C° 0 mm 1 mps 624 mmHg 80%
    21:00 +13°C° 0 mm 1 mps 624 mmHg 87%
    22:00 +12°C° 0 mm 1 mps 624 mmHg 88%
    23:00 +12°C° 0 mm 1 mps 624 mmHg 88%

    Tomorrow, 22 July, Saturday

    Time Temperature Precipitation Wind Pressure Humidity
    00:00 +12°C° 0 mm 1 mps 624 mmHg 89%
    01:00 +12°C° 0 mm 1 mps 624 mmHg 89%
    02:00 +11°C° 0 mm 1 mps 624 mmHg 90%
    03:00 +11°C° 0 mm 1 mps 624 mmHg 90%
    04:00 +12°C° 0 mm 1 mps 624 mmHg 89%
    05:00 +12°C° 0 mm 1 mps 625 mmHg 87%
    06:00 +13°C° 0 mm 1 mps 625 mmHg 85%
    07:00 +15°C° 0 mm 2 mps 626 mmHg 74%
    08:00 +17°C° 0 mm 2 mps 627 mmHg 63%
    09:00 +20°C° 0 mm 2 mps 628 mmHg 52%
    10:00 +21°C° 0 mm 3 mps 628 mmHg 47%
    11:00 +22°C° 0 mm 4 mps 629 mmHg 42%
    12:00 +23°C° 0 mm 4 mps 629 mmHg 37%
    13:00 +23°C° 0 mm 4 mps 629 mmHg 38%
    14:00 +23°C° 0 mm 4 mps 629 mmHg 39%
    15:00 +23°C° 0 mm 4 mps 628 mmHg 39%
    16:00 +22°C° 0.2 mm 4 mps 628 mmHg 45%
    17:00 +21°C° 0.2 mm 3 mps 628 mmHg 52%
    18:00 +20°C° 0.2 mm 2 mps 628 mmHg 58%
    19:00 +18°C° 0 mm 2 mps 627 mmHg 67%
    20:00 +16°C° 0 mm 2 mps 627 mmHg 77%
    21:00 +14°C° 0 mm 1 mps 627 mmHg 87%
    22:00 +13°C° 0 mm 1 mps 627 mmHg 88%
    23:00 +13°C° 0 mm 1 mps 627 mmHg 89%

    Day after tomorrow, 23 July, Sunday

    Time Temperature Precipitation Wind Pressure Humidity
    00:00 +13°C° 0 mm 1 mps 627 mmHg 90%
    01:00 +12°C° 0 mm 1 mps 627 mmHg 90%
    02:00 +12°C° 0 mm 1 mps 627 mmHg 91%
    03:00 +12°C° 0 mm 1 mps 627 mmHg 91%
    04:00 +12°C° 0 mm 1 mps 627 mmHg 89%
    05:00 +13°C° 0 mm 1 mps 628 mmHg 88%
    06:00 +13°C° 0 mm 1 mps 628 mmHg 86%
    07:00 +15°C° 0 mm 1 mps 629 mmHg 79%
    08:00 +16°C° 0 mm 2 mps 630 mmHg 71%
    09:00 +18°C° 0 mm 2 mps 630 mmHg 64%
    10:00 +19°C° 0 mm 3 mps 631 mmHg 59%
    11:00 +20°C° 0 mm 3 mps 631 mmHg 53%
    12:00 +21°C° 0 mm 4 mps 631 mmHg 48%
    13:00 +21°C° 0 mm 4 mps 631 mmHg 48%
    14:00 +22°C° 0 mm 4 mps 631 mmHg 49%
    15:00 +22°C° 0 mm 4 mps 630 mmHg 49%
    16:00 +20°C° 0.9 mm 3 mps 630 mmHg 59%
    17:00 +18°C° 0.9 mm 2 mps 629 mmHg 69%
    18:00 +16°C° 0.9 mm 2 mps 628 mmHg 79%
    19:00 +15°C° 1.3 mm 1 mps 628 mmHg 84%
    20:00 +14°C° 1.3 mm 1 mps 628 mmHg 89%
    21:00 +13°C° 1.3 mm 1 mps 628 mmHg 94%
    22:00 +13°C° 0.1 mm 1 mps 628 mmHg 94%
    23:00 +12°C° 0.1 mm 1 mps 627 mmHg 95%

    24 July, Monday

    Time Temperature Precipitation Wind Pressure Humidity
    00:00 +12°C° 0.1 mm 1 mps 627 mmHg 96%
    01:00 +12°C° 0 mm 1 mps 627 mmHg 96%
    02:00 +11°C° 0 mm 1 mps 627 mmHg 96%
    03:00 +11°C° 0 mm 1 mps 626 mmHg 96%
    04:00 +10°C° 0 mm 2 mps 626 mmHg 94%
    05:00 +10°C° 0 mm 2 mps 626 mmHg 92%
    06:00 +10°C° 0 mm 2 mps 626 mmHg 90%
    07:00 +13°C° 0 mm 2 mps 627 mmHg 80%
    08:00 +15°C° 0 mm 2 mps 628 mmHg 69%
    09:00 +16°C° 0 mm 3 mps 628 mmHg 58%
    10:00 +17°C° 0 mm 3 mps 629 mmHg 54%
    11:00 +18°C° 0 mm 3 mps 629 mmHg 50%
    12:00 +20°C° 0 mm 3 mps 629 mmHg 46%
    13:00 +20°C° 0 mm 3 mps 629 mmHg 46%
    14:00 +20°C° 0 mm 3 mps 629 mmHg 46%
    15:00 +20°C° 0 mm 4 mps 629 mmHg 46%
    16:00 +19°C° 0 mm 4 mps 628 mmHg 52%
    17:00 +17°C° 0 mm 3 mps 628 mmHg 58%
    18:00 +16°C° 0 mm 3 mps 628 mmHg 64%
    19:00 +13°C° 0 mm 3 mps 627 mmHg 70%
    20:00 +12°C° 0 mm 3 mps 627 mmHg 76%
    21:00 +10°C° 0 mm 3 mps 627 mmHg 82%
    22:00 +9°C° 0 mm 3 mps 626 mmHg 82%
    23:00 +9°C° 0 mm 3 mps 626 mmHg 81%

    25 July, Tuesday

    Time Temperature Precipitation Wind Pressure Humidity
    00:00 +8°C° 0 mm 2 mps 626 mmHg 80%
    01:00 +7°C° 0 mm 2 mps 625 mmHg 77%
    02:00 +7°C° 0 mm 2 mps 625 mmHg 74%
    03:00 +7°C° 0 mm 3 mps 625 mmHg 71%
    04:00 +7°C° 0 mm 3 mps 625 mmHg 71%
    05:00 +8°C° 0 mm 3 mps 625 mmHg 70%
    06:00 +8°C° 0 mm 3 mps 625 mmHg 69%
    07:00 +10°C° 0 mm 3 mps 626 mmHg 61%
    08:00 +12°C° 0 mm 3 mps 627 mmHg 54%
    09:00 +16°C° 0 mm 3 mps 628 mmHg 46%
    10:00 +17°C° 0 mm 3 mps 628 mmHg 44%
    11:00 +18°C° 0 mm 3 mps 628 mmHg 42%
    12:00 +19°C° 0 mm 4 mps 628 mmHg 39%
    13:00 +19°C° 0 mm 4 mps 628 mmHg 40%
    14:00 +19°C° 0 mm 4 mps 628 mmHg 41%
    15:00 +19°C° 0 mm 4 mps 628 mmHg 42%
    16:00 +18°C° 0.1 mm 4 mps 627 mmHg 48%
    17:00 +17°C° 0.1 mm 3 mps 627 mmHg 54%
    18:00 +16°C° 0.1 mm 3 mps 626 mmHg 60%
    19:00 +13°C° 0.1 mm 3 mps 626 mmHg 69%
    20:00 +11°C° 0.1 mm 3 mps 625 mmHg 78%
    21:00 +9°C° 0.1 mm 2 mps 625 mmHg 87%
    22:00 +9°C° 0 mm 2 mps 625 mmHg 86%
    23:00 +8°C° 0 mm 2 mps 625 mmHg 86%

    26 July, Wednesday

    Time Temperature Precipitation Wind Pressure Humidity
    00:00 +8°C° 0 mm 2 mps 625 mmHg 85%
    01:00 +8°C° 0 mm 2 mps 624 mmHg 86%
    02:00 +8°C° 0 mm 2 mps 624 mmHg 87%
    03:00 +8°C° 0 mm 2 mps 624 mmHg 87%
    04:00 +8°C° 0 mm 2 mps 624 mmHg 85%
    05:00 +9°C° 0 mm 2 mps 625 mmHg 83%
    06:00 +9°C° 0 mm 2 mps 625 mmHg 80%
    07:00 +13°C° 0 mm 1 mps 626 mmHg 69%
    08:00 +15°C° 0 mm 1 mps 627 mmHg 58%
    09:00 +19°C° 0 mm 1 mps 628 mmHg 48%
    10:00 +20°C° 0 mm 1 mps 628 mmHg 44%
    11:00 +20°C° 0 mm 2 mps 628 mmHg 41%
    12:00 +21°C° 0 mm 2 mps 629 mmHg 38%
    13:00 +21°C° 0 mm 2 mps 628 mmHg 40%
    14:00 +21°C° 0 mm 2 mps 628 mmHg 41%
    15:00 +21°C° 0 mm 2 mps 628 mmHg 42%
    16:00 +20°C° 0 mm 2 mps 627 mmHg 47%
    17:00 +19°C° 0 mm 2 mps 627 mmHg 53%
    18:00 +18°C° 0 mm 2 mps 627 mmHg 58%
    19:00 +16°C° 0 mm 1 mps 626 mmHg 65%
    20:00 +15°C° 0 mm 1 mps 626 mmHg 73%
    21:00 +13°C° 0 mm 1 mps 626 mmHg 81%
    22:00 +13°C° 0 mm 1 mps 626 mmHg 81%
    23:00 +12°C° 0 mm 1 mps 626 mmHg 82%
    Show more